Location: Boiro
(42.6475°N, 8.8834°W)
Time: 02:16:32
(UTC+01:00)

Tiros 1 despin weight - Pass Details

Date: 07 December 2021
Orbit: 592 x 641 km, 48.2° (Epoch: 23 January)

Event Time Altitude Azimuth Distance (km) Brightness Sun altitude
Rises 13:44:38 0° 241° (WSW) 2,845 ? 24.6°
Reaches altitude 10° 13:46:56 10° 241° (WSW) 1,937 ? 24.5°
Maximum altitude 13:51:22 87° 153° (SSE) 601 ? 24.4°
Drops below altitude 10° 13:55:48 10° 65° (ENE) 1,925 ? 24.4°
Sets 13:58:04 0° 65° (ENE) 2,827 ? 24.3°
